{"data":{"norad_id":55805,"intl_designator":"2023-029K","name":"ONEWEB-0641","alt_names":[],"object_type":"PAYLOAD","status":"ACTIVE","operator":null,"country":"UK","launch_date":"2023-03-09","launch_site_code":"AFETR","launch_vehicle":null,"mission":null,"orbit_class":"UNKNOWN","rcs_meters":null,"size_class":null,"mass_kg":null,"dimensions":null,"purposes":["comms"],"wikipedia_slug":null,"has_3d_model":false,"image_url":null,"decayed_at":null,"tle_current":{"epoch":"2026-09-20T00:36:52.139808Z","epoch_age_seconds":63032,"freshness":"FRESH","line1":"1 55805U 23029K   26263.02560347 -.00001505  00000+0 -37929-2 0  9999","line2":"2 55805  87.9110 286.0737 0001995  92.6743 267.4618 13.19730708171427","mean_motion":13.19730708,"eccentricity":0.0001995,"inclination_deg":87.911,"raan_deg":286.0737,"arg_perigee_deg":92.6743,"mean_anomaly_deg":267.4618,"bstar":-0.0037929,"rev_number":17142,"period_min":109.11316916936,"perigee_km":1184.2397468805,"apogee_km":1187.2577372916,"semimajor_km":7563.885742086,"source":"CELESTRAK","updated_at":"2026-09-20T09:00:44.760656Z"}}}